Chicago DuPage, IL

9:54 AM CDT on July 20, 2017 (GMT -0500)
Du Page

Weather History for KDPA - November, 2014

Change the Weather History Date:

Friday, November 14, 2014

  Actual Average Record
Temperature  
Mean Temperature 24 °F 41 °F  
Max Temperature 28 °F 50 °F 64 °F (2009)
Min Temperature 19 °F 32 °F 19 °F (2014)
Degree Days  
Heating Degree Days 41 24  
Month to date heating degree days 312 292  
Since 1 July heating degree days 847 803  
Cooling Degree Days 0 0  
Month to date cooling degree days 0 0  
Year to date cooling degree days 767 814  
Moisture  
Dew Point 14 °F    
Average Humidity 63    
Maximum Humidity 74    
Minimum Humidity 51    
Precipitation  
Precipitation T in 0.11 in 0.39 in (2001)
Month to date precipitation 0.04 1.49  
Year to date precipitation 27.87 33.60  
Sea Level Pressure  
Sea Level Pressure 30.37 in    
Wind  
Wind Speed 7 mph (West)    
Max Wind Speed 13 mph    
Max Gust Speed 16 mph    
Visibility 10 miles    
Events      
T = Trace of Precipitation, MM = Missing Value Source: NWS Daily Summary

Daily Weather History Graph

Daily Weather History Graph

Search for Another Location

Airport or City:

Trip Planner

Search our weather history database for the weather conditions in past years. The results will help you decide how hot, cold, wet, or windy it might be!

Date:

Astronomy

Nov. 14, 2014 Rise Set
Actual Time 6:41 AM CST 4:32 PM CST
Civil Twilight 6:11 AM CST 5:02 PM CST
Nautical Twilight 5:37 AM CST 5:36 PM CST
Astronomical Twilight 5:04 AM CST 6:09 PM CST
Moon 11:48 PM CST (11/14) 12:31 PM CST (11/14)
Length of Visible Light 10h 51m
Length of Day
9h 51m
Waning Gibbous, 49% of the Moon is Illuminated
Nov 14
Waning Gibbous
Nov 22
New
Nov 29
First Quarter
Dec 6
Full
Dec 14
Last Quarter

Hourly Weather History & Observations

Time (CST) Temp. Windchill Dew Point Humidity Pressure Visibility Wind Dir Wind Speed Gust Speed Precip Events Conditions
12:52 AM 24.1 °F 15.2 °F 16.0 °F 71% 30.30 in 10.0 mi WNW 8.1 mph - 0.00 in   Overcast
1:52 AM 24.1 °F 13.1 °F 14.0 °F 65% 30.33 in 10.0 mi NW 11.5 mph - N/A   Overcast
2:52 AM 24.1 °F 16.0 °F 14.0 °F 65% 30.33 in 10.0 mi WNW 6.9 mph - N/A   Overcast
3:52 AM 24.1 °F 13.7 °F 15.1 °F 69% 30.33 in 10.0 mi WNW 10.4 mph - N/A   Overcast
4:52 AM 23.0 °F 13.9 °F 16.0 °F 74% 30.34 in 10.0 mi West 8.1 mph - N/A   Overcast
5:52 AM 23.0 °F 13.1 °F 16.0 °F 74% 30.35 in 10.0 mi WNW 9.2 mph - N/A   Overcast
6:52 AM 23.0 °F 12.4 °F 16.0 °F 74% 30.36 in 10.0 mi West 10.4 mph - N/A   Overcast
7:52 AM 24.1 °F 15.2 °F 16.0 °F 71% 30.37 in 10.0 mi WNW 8.1 mph - N/A   Overcast
8:52 AM 25.0 °F 17.1 °F 16.0 °F 69% 30.38 in 10.0 mi NNW 6.9 mph - N/A   Overcast
9:42 AM 26.1 °F 18.4 °F 16.0 °F 66% 30.36 in 10.0 mi West 6.9 mph - N/A   Overcast
9:52 AM 25.0 °F 20.7 °F 16.0 °F 69% 30.40 in 10.0 mi West 3.5 mph - N/A   Overcast
10:26 AM 26.1 °F 18.4 °F 16.0 °F 66% 30.36 in 10.0 mi WSW 6.9 mph - N/A   Overcast
10:52 AM 26.1 °F 17.6 °F 15.1 °F 63% 30.39 in 10.0 mi West 8.1 mph - N/A   Overcast
11:52 AM 26.1 °F 21.9 °F 12.0 °F 55% 30.38 in 10.0 mi Variable 3.5 mph - N/A   Overcast
12:52 PM 28.0 °F 20.8 °F 12.0 °F 51% 30.36 in 10.0 mi WNW 6.9 mph - N/A   Overcast
1:52 PM 27.0 °F 18.0 °F 12.0 °F 53% 30.37 in 10.0 mi SW 9.2 mph - N/A   Overcast
2:52 PM 27.0 °F 20.5 °F 12.0 °F 53% 30.36 in 10.0 mi West 5.8 mph - N/A   Overcast
3:52 PM 26.1 °F 19.4 °F 12.0 °F 55% 30.37 in 10.0 mi WNW 5.8 mph - N/A   Overcast
4:52 PM 26.1 °F 17.6 °F 12.0 °F 55% 30.38 in 10.0 mi WSW 8.1 mph - N/A   Overcast
5:52 PM 26.1 °F 19.4 °F 10.9 °F 53% 30.38 in 10.0 mi West 5.8 mph - N/A   Overcast
6:52 PM 24.1 °F 18.2 °F 10.9 °F 57% 30.37 in 10.0 mi SW 4.6 mph - N/A   Overcast
7:52 PM 24.1 °F 16.0 °F 12.0 °F 60% 30.38 in 10.0 mi SW 6.9 mph - N/A   Overcast
8:52 PM 24.1 °F 17.0 °F 12.0 °F 60% 30.39 in 10.0 mi SW 5.8 mph - N/A   Overcast
9:52 PM 23.0 °F 15.8 °F 12.9 °F 65% 30.39 in 10.0 mi SW 5.8 mph - N/A   Overcast
10:52 PM 21.9 °F 15.7 °F 12.0 °F 66% 30.38 in 10.0 mi SW 4.6 mph - N/A   Clear
11:52 PM 19.9 °F 13.4 °F 10.9 °F 68% 30.38 in 10.0 mi SW 4.6 mph - N/A   Clear